ELY542 LGAV-LLBG

Flight info

Callsign ELY542
Flight time 1h 31m
Altitude 33000
Route KEA UL52 LINRO DCT VANZA DCT PIKOG L609 ZUKKO
Aircraft B739/M-SDE2E3FGHIRWXY/LB1

Departure

Time 2026-05-05 16:22
Airport Athens Eleftherios Venizelos International Airport (LGAV)

Arrival

Time 2026-05-05 17:53
Airport Ben Gurion International Airport (LLBG)
Time Latitude Longitude Altitude Speed Heading
2026-05-05 15:48 37.93369 23.94619 299 ft 0 kts 306°
2026-05-05 16:11 37.93332 23.94667 302 ft 3 kts 332°
2026-05-05 16:12 37.93314 23.94676 300 ft 3 kts 359°
2026-05-05 16:12 37.93298 23.94671 300 ft 1 kts 37°
2026-05-05 16:14 37.93311 23.94684 295 ft 2 kts 37°
2026-05-05 16:15 37.93336 23.94707 308 ft 3 kts 37°
2026-05-05 16:15 37.93406 23.94773 302 ft 9 kts 37°
2026-05-05 16:16 37.93439 23.94921 300 ft 10 kts 70°
2026-05-05 16:16 37.93611 23.95099 300 ft 19 kts 37°
2026-05-05 16:17 37.93650 23.95244 297 ft 12 kts 102°
2026-05-05 16:17 37.93705 23.95331 300 ft 15 kts 36°
2026-05-05 16:18 37.93881 23.95500 298 ft 16 kts 37°
2026-05-05 16:18 37.93972 23.95585 297 ft 16 kts 36°
2026-05-05 16:18 37.94141 23.95745 298 ft 15 kts 37°
2026-05-05 16:19 37.94226 23.95826 298 ft 16 kts 36°
2026-05-05 16:19 37.94318 23.95912 297 ft 18 kts 37°
2026-05-05 16:19 37.94539 23.96121 297 ft 20 kts 39°
2026-05-05 16:20 37.94608 23.96321 296 ft 17 kts 176°
2026-05-05 16:20 37.94318 23.96194 291 ft 37 kts 217°
2026-05-05 16:21 37.93132 23.95068 295 ft 166 kts 216°
2026-05-05 16:22 37.89814 23.92528 2151 ft 189 kts 206°
2026-05-05 16:22 37.87436 23.91020 3364 ft 193 kts 209°
2026-05-05 16:23 37.84837 23.89296 3881 ft 231 kts 210°
2026-05-05 16:23 37.83867 23.88648 4015 ft 244 kts 210°
2026-05-05 16:23 37.80617 23.86783 4841 ft 274 kts 186°
2026-05-05 16:24 37.78725 23.87234 5392 ft 283 kts 150°
2026-05-05 16:24 37.77282 23.88869 6046 ft 285 kts 124°
2026-05-05 16:24 37.75078 23.93133 7416 ft 292 kts 119°
2026-05-05 16:25 37.74005 23.95334 8148 ft 294 kts 119°
2026-05-05 16:25 37.71835 23.99760 9593 ft 299 kts 120°
2026-05-05 16:25 37.70726 24.01997 10258 ft 302 kts 120°
2026-05-05 16:26 37.68350 24.06758 10659 ft 343 kts 120°
2026-05-05 16:26 37.65701 24.12018 11572 ft 360 kts 120°
2026-05-05 16:27 37.64346 24.14692 12246 ft 362 kts 120°
2026-05-05 16:27 37.62985 24.17374 12909 ft 364 kts 120°
2026-05-05 16:27 37.61610 24.20081 13528 ft 368 kts 120°
2026-05-05 16:27 37.60225 24.22806 14130 ft 371 kts 120°
2026-05-05 16:28 37.58823 24.25564 14653 ft 375 kts 120°
2026-05-05 16:28 37.57409 24.28342 15160 ft 379 kts 120°
2026-05-05 16:28 37.55978 24.31152 15712 ft 382 kts 120°
2026-05-05 16:28 37.54535 24.33984 16222 ft 386 kts 120°
2026-05-05 16:29 37.53094 24.36809 16712 ft 390 kts 120°
2026-05-05 16:29 37.51617 24.39702 17226 ft 394 kts 120°
2026-05-05 16:29 37.50129 24.42614 17730 ft 397 kts 120°
2026-05-05 16:29 37.48624 24.45556 18229 ft 401 kts 120°
2026-05-05 16:30 37.47101 24.48530 18662 ft 405 kts 120°
2026-05-05 16:30 37.45567 24.51523 19103 ft 408 kts 120°
2026-05-05 16:30 37.44019 24.54541 19567 ft 411 kts 120°
2026-05-05 16:30 37.42463 24.57573 20010 ft 414 kts 120°
2026-05-05 16:31 37.40892 24.60631 20437 ft 418 kts 120°
2026-05-05 16:31 37.39307 24.63712 20859 ft 421 kts 121°
2026-05-05 16:31 37.37711 24.66813 21306 ft 424 kts 121°
2026-05-05 16:31 37.36099 24.69941 21730 ft 427 kts 121°
2026-05-05 16:32 37.34472 24.73095 22143 ft 431 kts 121°
2026-05-05 16:32 37.32853 24.76232 22555 ft 434 kts 121°
2026-05-05 16:32 37.31206 24.79418 22981 ft 437 kts 121°
2026-05-05 16:32 37.29546 24.82629 23392 ft 440 kts 121°
2026-05-05 16:33 37.27874 24.85857 23750 ft 443 kts 121°
2026-05-05 16:33 37.26188 24.89112 24093 ft 446 kts 121°
2026-05-05 16:33 37.24490 24.92385 24468 ft 447 kts 121°
2026-05-05 16:33 37.22790 24.95660 24834 ft 449 kts 121°
2026-05-05 16:34 37.21075 24.98961 25167 ft 452 kts 121°
2026-05-05 16:34 37.19374 25.02230 25468 ft 454 kts 121°
2026-05-05 16:34 37.17644 25.05554 25831 ft 456 kts 121°
2026-05-05 16:34 37.15906 25.08890 26179 ft 458 kts 121°
2026-05-05 16:35 37.14159 25.12238 26496 ft 460 kts 121°
2026-05-05 16:35 37.12410 25.15601 26820 ft 462 kts 120°
2026-05-05 16:35 37.10665 25.18997 27169 ft 464 kts 120°
2026-05-05 16:35 37.08919 25.22413 27494 ft 465 kts 120°
2026-05-05 16:36 37.07168 25.25844 27811 ft 468 kts 120°
2026-05-05 16:36 37.05411 25.29284 28116 ft 470 kts 120°
2026-05-05 16:36 37.03645 25.32732 28453 ft 471 kts 120°
2026-05-05 16:36 37.01875 25.36183 28773 ft 473 kts 120°
2026-05-05 16:37 37.00090 25.39655 29062 ft 475 kts 120°
2026-05-05 16:37 36.98320 25.43095 29324 ft 477 kts 120°
2026-05-05 16:37 36.96496 25.46632 29681 ft 478 kts 120°
2026-05-05 16:37 36.94719 25.50075 30128 ft 476 kts 120°
2026-05-05 16:38 36.92926 25.53545 30463 ft 475 kts 120°
2026-05-05 16:38 36.91129 25.57021 30692 ft 476 kts 120°
2026-05-05 16:38 36.89327 25.60504 30925 ft 478 kts 120°
2026-05-05 16:38 36.87523 25.63988 31204 ft 478 kts 120°
2026-05-05 16:39 36.85717 25.67471 31457 ft 479 kts 120°
2026-05-05 16:39 36.83901 25.70970 31667 ft 480 kts 120°
2026-05-05 16:39 36.82079 25.74476 31931 ft 480 kts 120°
2026-05-05 16:39 36.80259 25.77975 32185 ft 481 kts 120°
2026-05-05 16:40 36.78431 25.81486 32379 ft 482 kts 120°
2026-05-05 16:40 36.76603 25.84993 32572 ft 484 kts 120°
2026-05-05 16:40 36.74764 25.88517 32820 ft 484 kts 120°
2026-05-05 16:40 36.72928 25.92032 33049 ft 484 kts 120°
2026-05-05 16:41 36.69252 25.99061 33059 ft 490 kts 121°
2026-05-05 16:41 36.65504 26.06211 33059 ft 495 kts 121°
2026-05-05 16:42 36.61705 26.13444 33068 ft 500 kts 121°
2026-05-05 16:42 36.57897 26.20679 33056 ft 504 kts 121°
2026-05-05 16:43 36.54378 26.28217 33066 ft 504 kts 114°
2026-05-05 16:43 36.51303 26.36094 33058 ft 506 kts 113°
2026-05-05 16:44 36.48221 26.43986 33058 ft 507 kts 114°
2026-05-05 16:44 36.45078 26.51836 33049 ft 507 kts 114°
2026-05-05 16:45 36.41932 26.59616 33051 ft 506 kts 114°
2026-05-05 16:45 36.38773 26.67423 33042 ft 505 kts 114°
2026-05-05 16:46 36.35617 26.75213 33051 ft 504 kts 114°
2026-05-05 16:46 36.32454 26.82982 33043 ft 503 kts 114°
2026-05-05 16:47 36.29315 26.90668 33045 ft 503 kts 114°
2026-05-05 16:47 36.26156 26.98387 33040 ft 502 kts 115°
2026-05-05 16:48 36.22991 27.06109 33043 ft 502 kts 115°
2026-05-05 16:48 36.19823 27.13819 33035 ft 501 kts 115°
2026-05-05 16:49 36.16651 27.21520 33035 ft 501 kts 115°
2026-05-05 16:49 36.13500 27.29155 33031 ft 501 kts 115°
2026-05-05 16:50 36.10051 27.36662 33039 ft 502 kts 120°
2026-05-05 16:50 36.06355 27.44008 33030 ft 503 kts 120°
2026-05-05 16:51 36.02653 27.51365 33033 ft 503 kts 120°
2026-05-05 16:51 35.99021 27.58684 33025 ft 503 kts 120°
2026-05-05 16:52 35.95385 27.66052 33020 ft 503 kts 120°
2026-05-05 16:52 35.91739 27.73433 33020 ft 503 kts 120°
2026-05-05 16:53 35.88087 27.80804 33021 ft 503 kts 120°
2026-05-05 16:53 35.84430 27.88165 33017 ft 503 kts 120°
2026-05-05 16:54 35.80765 27.95524 33009 ft 504 kts 120°
2026-05-05 16:54 35.77115 28.02839 33008 ft 504 kts 121°
2026-05-05 16:55 35.73436 28.10194 33011 ft 504 kts 121°
2026-05-05 16:55 35.69751 28.17549 33005 ft 505 kts 121°
2026-05-05 16:56 35.66056 28.24905 33009 ft 505 kts 121°
2026-05-05 16:56 35.62354 28.32260 33002 ft 506 kts 121°
2026-05-05 16:57 35.58650 28.39605 33006 ft 506 kts 121°
2026-05-05 16:57 35.54951 28.46923 32998 ft 507 kts 121°
2026-05-05 16:58 35.51232 28.54266 33006 ft 507 kts 121°
2026-05-05 16:58 35.47493 28.61632 32999 ft 508 kts 122°
2026-05-05 16:59 35.43741 28.69008 33006 ft 508 kts 122°
2026-05-05 16:59 35.40015 28.76318 33003 ft 509 kts 122°
2026-05-05 17:00 35.36253 28.83681 33006 ft 510 kts 122°
2026-05-05 17:00 35.32484 28.91044 33002 ft 510 kts 122°
2026-05-05 17:01 35.28703 28.98414 33005 ft 511 kts 122°
2026-05-05 17:01 35.24922 29.05772 33011 ft 511 kts 122°
2026-05-05 17:02 35.21129 29.13134 33010 ft 512 kts 123°
2026-05-05 17:02 35.17321 29.20510 33007 ft 512 kts 123°
2026-05-05 17:03 35.13528 29.27840 33001 ft 513 kts 123°
2026-05-05 17:03 35.09706 29.35212 33009 ft 514 kts 123°
2026-05-05 17:04 35.05896 29.42548 32989 ft 507 kts 123°
2026-05-05 17:04 35.02131 29.49762 33001 ft 502 kts 123°
2026-05-05 17:05 34.98372 29.56947 33005 ft 501 kts 123°
2026-05-05 17:05 34.94637 29.64120 33008 ft 501 kts 123°
2026-05-05 17:06 34.90885 29.71297 33010 ft 502 kts 124°
2026-05-05 17:06 34.87109 29.78490 33019 ft 504 kts 124°
2026-05-05 17:07 34.83338 29.85661 33015 ft 507 kts 124°
2026-05-05 17:07 34.79520 29.92908 33016 ft 510 kts 124°
2026-05-05 17:08 34.75673 30.00196 33025 ft 513 kts 124°
2026-05-05 17:08 34.71867 30.07588 33023 ft 518 kts 123°
2026-05-05 17:09 34.68724 30.13813 33032 ft 521 kts 123°
2026-05-05 17:09 34.64918 30.21340 33022 ft 524 kts 123°
2026-05-05 17:10 34.61094 30.28851 33026 ft 526 kts 123°
2026-05-05 17:10 34.57232 30.36404 33022 ft 527 kts 124°
2026-05-05 17:11 34.53357 30.43962 33021 ft 528 kts 124°
2026-05-05 17:11 34.49466 30.51537 33018 ft 528 kts 124°
2026-05-05 17:12 34.45592 30.59065 33023 ft 528 kts 124°
2026-05-05 17:12 34.41693 30.66625 33024 ft 529 kts 124°
2026-05-05 17:13 34.37794 30.74170 33022 ft 529 kts 124°
2026-05-05 17:13 34.33880 30.81726 33025 ft 529 kts 124°
2026-05-05 17:14 34.29964 30.89271 33024 ft 530 kts 124°
2026-05-05 17:14 34.26036 30.96822 33026 ft 530 kts 125°
2026-05-05 17:15 34.22099 31.04376 33026 ft 531 kts 125°
2026-05-05 17:15 34.18179 31.11880 33027 ft 531 kts 125°
2026-05-05 17:16 34.14228 31.19428 33029 ft 531 kts 125°
2026-05-05 17:16 34.10271 31.26972 33032 ft 531 kts 125°
2026-05-05 17:17 34.06337 31.34457 33033 ft 531 kts 126°
2026-05-05 17:17 34.02374 31.41980 33034 ft 531 kts 126°
2026-05-05 17:18 33.98407 31.49496 33025 ft 531 kts 126°
2026-05-05 17:18 33.94427 31.57021 33027 ft 531 kts 126°
2026-05-05 17:19 33.90475 31.64477 33030 ft 530 kts 126°
2026-05-05 17:19 33.86499 31.71963 33032 ft 530 kts 126°
2026-05-05 17:20 33.82527 31.79425 33034 ft 530 kts 126°
2026-05-05 17:20 33.78550 31.86883 33031 ft 529 kts 126°
2026-05-05 17:21 33.74567 31.94335 33029 ft 529 kts 127°
2026-05-05 17:22 33.68593 32.05485 33027 ft 529 kts 127°
2026-05-05 17:22 33.64622 32.12877 33027 ft 528 kts 127°
2026-05-05 17:23 33.60633 32.20289 33033 ft 528 kts 127°
2026-05-05 17:23 33.56644 32.27685 33032 ft 528 kts 127°
2026-05-05 17:24 33.52737 32.34924 33013 ft 507 kts 127°
2026-05-05 17:24 33.48954 32.41921 33025 ft 498 kts 128°
2026-05-05 17:25 33.45182 32.48863 33036 ft 496 kts 128°
2026-05-05 17:25 33.41414 32.55786 33036 ft 495 kts 128°
2026-05-05 17:26 33.37680 32.62640 33033 ft 495 kts 128°
2026-05-05 17:26 33.33916 32.69540 33038 ft 495 kts 128°
2026-05-05 17:27 33.30142 32.76444 33030 ft 495 kts 128°
2026-05-05 17:27 33.26393 32.83294 33026 ft 489 kts 128°
2026-05-05 17:28 33.22678 32.90067 33022 ft 487 kts 129°
2026-05-05 17:28 33.20829 32.93428 32818 ft 493 kts 129°
2026-05-05 17:28 33.18933 32.96867 32573 ft 500 kts 128°
2026-05-05 17:28 33.17014 33.00348 32323 ft 503 kts 128°
2026-05-05 17:29 33.15092 33.03839 32066 ft 502 kts 128°
2026-05-05 17:29 33.13177 33.07317 31801 ft 500 kts 128°
2026-05-05 17:29 33.11270 33.10777 31547 ft 498 kts 128°
2026-05-05 17:29 33.09363 33.14233 31300 ft 496 kts 128°
2026-05-05 17:30 33.07464 33.17668 31061 ft 495 kts 129°
2026-05-05 17:30 33.05567 33.21094 30811 ft 495 kts 129°
2026-05-05 17:30 33.03689 33.24483 30572 ft 495 kts 129°
2026-05-05 17:30 33.01765 33.27957 29856 ft 497 kts 128°
2026-05-05 17:31 32.99947 33.31350 29580 ft 488 kts 127°
2026-05-05 17:31 32.98117 33.34842 29295 ft 493 kts 127°
2026-05-05 17:31 32.96314 33.38298 29046 ft 503 kts 127°
2026-05-05 17:31 32.94435 33.41897 28777 ft 509 kts 127°
2026-05-05 17:32 32.92580 33.45445 28467 ft 510 kts 127°
2026-05-05 17:32 32.90699 33.49034 27493 ft 512 kts 127°
2026-05-05 17:32 32.88812 33.52623 26646 ft 511 kts 127°
2026-05-05 17:32 32.86942 33.56173 25711 ft 503 kts 127°
2026-05-05 17:33 32.85091 33.59681 24803 ft 499 kts 126°
2026-05-05 17:33 32.83239 33.63179 23833 ft 502 kts 126°
2026-05-05 17:33 32.81379 33.66685 22994 ft 499 kts 126°
2026-05-05 17:33 32.79539 33.70154 22143 ft 488 kts 124°
2026-05-05 17:34 32.77784 33.73468 21920 ft 460 kts 124°
2026-05-05 17:34 32.76125 33.76599 21749 ft 435 kts 124°
2026-05-05 17:34 32.74549 33.79569 21433 ft 418 kts 124°
2026-05-05 17:34 32.73008 33.82464 20683 ft 413 kts 124°
2026-05-05 17:35 32.71474 33.85341 19787 ft 413 kts 124°
2026-05-05 17:35 32.69937 33.88219 18987 ft 411 kts 124°
2026-05-05 17:35 32.68415 33.91070 18267 ft 407 kts 124°
2026-05-05 17:35 32.66908 33.93891 17493 ft 402 kts 124°
2026-05-05 17:36 32.65425 33.96670 16994 ft 393 kts 124°
2026-05-05 17:36 32.63998 33.99341 16873 ft 375 kts 124°
2026-05-05 17:36 32.62620 34.01922 16444 ft 367 kts 124°
2026-05-05 17:36 32.61259 34.04463 15829 ft 364 kts 124°
2026-05-05 17:37 32.59906 34.06990 15199 ft 361 kts 124°
2026-05-05 17:37 32.59016 34.08649 14801 ft 360 kts 124°
2026-05-05 17:37 32.57230 34.11980 13984 ft 359 kts 123°
2026-05-05 17:37 32.55853 34.14542 12852 ft 378 kts 123°
2026-05-05 17:38 32.54419 34.17210 12126 ft 388 kts 123°
2026-05-05 17:38 32.52952 34.19939 11545 ft 399 kts 123°
2026-05-05 17:38 32.51444 34.22744 10982 ft 404 kts 123°
2026-05-05 17:38 32.49964 34.25497 10844 ft 388 kts 123°
2026-05-05 17:39 32.48538 34.28146 10676 ft 375 kts 123°
2026-05-05 17:39 32.47162 34.30703 10521 ft 361 kts 123°
2026-05-05 17:39 32.45833 34.33167 10368 ft 349 kts 123°
2026-05-05 17:39 32.44550 34.35545 10227 ft 335 kts 123°
2026-05-05 17:40 32.43326 34.37814 10080 ft 318 kts 123°
2026-05-05 17:40 32.42163 34.39966 9942 ft 305 kts 123°
2026-05-05 17:40 32.41022 34.42078 9594 ft 303 kts 123°
2026-05-05 17:40 32.39890 34.44172 9276 ft 301 kts 123°
2026-05-05 17:41 32.38808 34.46277 8937 ft 301 kts 117°
2026-05-05 17:41 32.37933 34.48534 8703 ft 304 kts 113°
2026-05-05 17:41 32.37123 34.50864 8461 ft 308 kts 112°
2026-05-05 17:42 32.36618 34.52341 8298 ft 308 kts 112°
2026-05-05 17:42 32.35812 34.54677 8043 ft 305 kts 113°
2026-05-05 17:42 32.35007 34.56978 7785 ft 300 kts 113°
2026-05-05 17:42 32.34207 34.59237 7531 ft 296 kts 114°
2026-05-05 17:43 32.33407 34.61473 7290 ft 295 kts 114°
2026-05-05 17:43 32.32583 34.63757 7075 ft 313 kts 114°
2026-05-05 17:43 32.31707 34.66174 6840 ft 322 kts 114°
2026-05-05 17:43 32.30821 34.68617 6601 ft 325 kts 114°
2026-05-05 17:44 32.29930 34.71072 6347 ft 324 kts 115°
2026-05-05 17:44 32.29050 34.73490 6078 ft 317 kts 115°
2026-05-05 17:44 32.28191 34.75852 5796 ft 306 kts 114°
2026-05-05 17:44 32.27367 34.78114 5528 ft 294 kts 114°
2026-05-05 17:45 32.26574 34.80288 5259 ft 283 kts 115°
2026-05-05 17:45 32.25817 34.82364 5042 ft 267 kts 114°
2026-05-05 17:45 32.25101 34.84323 4770 ft 253 kts 114°
2026-05-05 17:45 32.24423 34.86178 4519 ft 239 kts 114°
2026-05-05 17:46 32.23782 34.87931 4280 ft 225 kts 114°
2026-05-05 17:46 32.23188 34.89555 4258 ft 207 kts 114°
2026-05-05 17:46 32.22625 34.91092 4253 ft 204 kts 114°
2026-05-05 17:46 32.22101 34.92658 4244 ft 205 kts 109°
2026-05-05 17:47 32.21683 34.94253 4245 ft 203 kts 107°
2026-05-05 17:47 32.21276 34.95848 4240 ft 202 kts 107°
2026-05-05 17:47 32.20867 34.97438 4235 ft 204 kts 108°
2026-05-05 17:47 32.20119 34.98868 3959 ft 208 kts 148°
2026-05-05 17:48 32.18823 34.99333 3735 ft 189 kts 188°
2026-05-05 17:48 32.17555 34.99201 3544 ft 179 kts 190°
2026-05-05 17:48 32.16330 34.99072 3301 ft 174 kts 195°
2026-05-05 17:48 32.15233 34.98600 3124 ft 170 kts 211°
2026-05-05 17:49 32.14167 34.97994 2925 ft 169 kts 211°
2026-05-05 17:49 32.13150 34.97368 2671 ft 159 kts 213°
2026-05-05 17:49 32.12186 34.96753 2460 ft 158 kts 213°
2026-05-05 17:49 32.11234 34.96140 2244 ft 156 kts 213°
2026-05-05 17:50 32.10269 34.95510 2054 ft 158 kts 212°
2026-05-05 17:50 32.09306 34.94885 1827 ft 158 kts 213°
2026-05-05 17:50 32.08349 34.94258 1578 ft 155 kts 213°
2026-05-05 17:50 32.07393 34.93648 1403 ft 159 kts 212°
2026-05-05 17:51 32.06437 34.93035 1186 ft 154 kts 212°
2026-05-05 17:51 32.05470 34.92397 978 ft 157 kts 213°
2026-05-05 17:51 32.04534 34.91787 775 ft 157 kts 213°
2026-05-05 17:51 32.03583 34.91179 581 ft 154 kts 214°
2026-05-05 17:52 32.02649 34.90567 368 ft 152 kts 213°
2026-05-05 17:52 32.01715 34.89961 161 ft 152 kts 212°
2026-05-05 17:52 32.00851 34.89402 121 ft 120 kts 210°
2026-05-05 17:52 32.00304 34.89050 114 ft 58 kts 208°
2026-05-05 17:53 32.00095 34.88913 119 ft 26 kts 209°
2026-05-05 17:53 31.99953 34.88799 116 ft 24 kts 224°
2026-05-05 17:53 31.99863 34.88661 116 ft 13 kts 238°
2026-05-05 17:53 31.99872 34.88568 118 ft 13 kts 328°
2026-05-05 17:54 31.99954 34.88591 119 ft 12 kts 28°
2026-05-05 17:54 32.00029 34.88639 117 ft 12 kts 28°
2026-05-05 17:54 32.00102 34.88621 119 ft 12 kts 309°
2026-05-05 17:54 32.00147 34.88541 117 ft 12 kts 302°
2026-05-05 17:55 32.00189 34.88462 118 ft 11 kts 302°
2026-05-05 17:55 32.00233 34.88379 118 ft 13 kts 302°
2026-05-05 17:55 32.00284 34.88281 116 ft 16 kts 301°
2026-05-05 17:55 32.00341 34.88171 118 ft 15 kts 301°
2026-05-05 17:56 32.00377 34.88100 118 ft 15 kts 302°
2026-05-05 17:56 32.00431 34.87998 116 ft 14 kts 301°
2026-05-05 17:56 32.00481 34.87900 116 ft 14 kts 301°
2026-05-05 17:56 32.00530 34.87806 117 ft 13 kts 301°
2026-05-05 17:57 32.00568 34.87714 118 ft 12 kts 273°
2026-05-05 17:57 32.00542 34.87645 115 ft 8 kts 237°
2026-05-05 17:57 32.00511 34.87591 115 ft 8 kts 236°
2026-05-05 17:57 32.00481 34.87539 117 ft 7 kts 235°
2026-05-05 17:58 32.00449 34.87500 116 ft 6 kts 219°
2026-05-05 17:58 32.00431 34.87483 117 ft 2 kts 217°
2026-05-05 17:58 32.00420 34.87474 118 ft 2 kts 216°